ICE434 BIKF-EGPH

Flight info

Callsign ICE434
Flight time 1h 52m
Altitude 37000
Route OSKUM3C OSKUM DCT RATSU/N0451F370 DCT BARKU DCT BILLY DCT ULLAP DCT RIMOL/N0449F380 DCT NESDI/N0427F240 N560 FOYLE DCT STIRA
Aircraft B38M/M-SDE1FGHILORVWXY/HB1

Departure

Time 2026-04-25 10:14
Airport Keflavik International Airport (BIKF)

Arrival

Time 2026-04-25 12:07
Airport Edinburgh Airport (EGPH)
Time Latitude Longitude Altitude Speed Heading
2026-04-25 09:52 63.99288 -22.62308 162 ft 0 kts 359°
2026-04-25 10:05 63.99287 -22.62308 162 ft 0 kts 359°
2026-04-25 10:06 63.99271 -22.62308 162 ft 2 kts 359°
2026-04-25 10:06 63.99255 -22.62307 162 ft 2 kts 359°
2026-04-25 10:07 63.99238 -22.62307 162 ft 2 kts 359°
2026-04-25 10:07 63.99222 -22.62306 162 ft 2 kts 359°
2026-04-25 10:07 63.99206 -22.62305 161 ft 2 kts 358°
2026-04-25 10:07 63.99190 -22.62305 161 ft 2 kts 12°
2026-04-25 10:08 63.99176 -22.62322 161 ft 2 kts 64°
2026-04-25 10:08 63.99172 -22.62353 160 ft 0 kts 91°
2026-04-25 10:11 63.99172 -22.62352 160 ft 0 kts 91°
2026-04-25 10:11 63.99172 -22.62289 161 ft 8 kts 91°
2026-04-25 10:11 63.99172 -22.62107 163 ft 14 kts 90°
2026-04-25 10:12 63.99171 -22.61855 166 ft 18 kts 90°
2026-04-25 10:12 63.99171 -22.61575 168 ft 18 kts 91°
2026-04-25 10:12 63.99172 -22.61011 172 ft 18 kts 90°
2026-04-25 10:13 63.99172 -22.60790 172 ft 7 kts 90°
2026-04-25 10:13 63.99172 -22.60661 172 ft 9 kts 90°
2026-04-25 10:13 63.99159 -22.60560 173 ft 6 kts 146°
2026-04-25 10:13 63.99108 -22.60542 173 ft 10 kts 180°
2026-04-25 10:14 63.98910 -22.60543 170 ft 65 kts 181°
2026-04-25 10:14 63.98202 -22.60547 166 ft 136 kts 180°
2026-04-25 10:14 63.97070 -22.60590 373 ft 182 kts 178°
2026-04-25 10:14 63.95760 -22.60669 1277 ft 190 kts 175°
2026-04-25 10:15 63.94548 -22.59706 2314 ft 188 kts 144°
2026-04-25 10:15 63.93704 -22.57291 2975 ft 208 kts 117°
2026-04-25 10:15 63.93167 -22.54085 3605 ft 227 kts 116°
2026-04-25 10:15 63.92561 -22.50673 4373 ft 238 kts 116°
2026-04-25 10:16 63.91932 -22.47108 5033 ft 253 kts 116°
2026-04-25 10:16 63.91255 -22.43278 5572 ft 271 kts 114°
2026-04-25 10:16 63.90557 -22.39298 6000 ft 277 kts 113°
2026-04-25 10:16 63.89843 -22.35214 6009 ft 279 kts 113°
2026-04-25 10:17 63.89125 -22.31129 6013 ft 278 kts 114°
2026-04-25 10:17 63.88406 -22.27038 6040 ft 283 kts 114°
2026-04-25 10:17 63.87669 -22.22866 6788 ft 288 kts 112°
2026-04-25 10:17 63.86919 -22.18605 7075 ft 296 kts 113°
2026-04-25 10:18 63.86153 -22.14275 7949 ft 295 kts 112°
2026-04-25 10:18 63.85388 -22.09957 8821 ft 297 kts 112°
2026-04-25 10:18 63.84608 -22.05567 9596 ft 302 kts 112°
2026-04-25 10:18 63.83836 -22.01094 10215 ft 307 kts 107°
2026-04-25 10:19 63.83465 -21.96335 10273 ft 313 kts 96°
2026-04-25 10:19 63.83198 -21.91305 10650 ft 329 kts 97°
2026-04-25 10:19 63.82903 -21.86020 11010 ft 347 kts 97°
2026-04-25 10:19 63.82593 -21.80474 11378 ft 363 kts 97°
2026-04-25 10:20 63.82270 -21.74715 11905 ft 371 kts 97°
2026-04-25 10:20 63.81944 -21.68931 12800 ft 370 kts 97°
2026-04-25 10:20 63.81618 -21.63206 13557 ft 374 kts 97°
2026-04-25 10:20 63.81282 -21.57346 14324 ft 377 kts 98°
2026-04-25 10:21 63.80941 -21.51434 15053 ft 379 kts 98°
2026-04-25 10:21 63.80595 -21.45487 15781 ft 383 kts 98°
2026-04-25 10:21 63.80244 -21.39483 16510 ft 386 kts 98°
2026-04-25 10:21 63.79888 -21.33457 17238 ft 388 kts 98°
2026-04-25 10:22 63.79528 -21.27384 17951 ft 392 kts 99°
2026-04-25 10:22 63.79285 -21.23328 18412 ft 394 kts 99°
2026-04-25 10:22 63.78789 -21.15091 19240 ft 397 kts 99°
2026-04-25 10:22 63.78411 -21.08875 19847 ft 400 kts 99°
2026-04-25 10:23 63.78027 -21.02635 20442 ft 402 kts 100°
2026-04-25 10:23 63.77357 -20.96479 21017 ft 403 kts 107°
2026-04-25 10:23 63.76613 -20.90341 21585 ft 406 kts 106°
2026-04-25 10:23 63.75882 -20.84150 22175 ft 409 kts 106°
2026-04-25 10:24 63.75167 -20.78016 22724 ft 412 kts 106°
2026-04-25 10:24 63.74789 -20.74756 23005 ft 413 kts 106°
2026-04-25 10:24 63.74067 -20.68529 23579 ft 416 kts 106°
2026-04-25 10:24 63.73329 -20.62185 24078 ft 418 kts 106°
2026-04-25 10:25 63.72585 -20.55810 24509 ft 421 kts 106°
2026-04-25 10:25 63.71836 -20.49411 24948 ft 423 kts 106°
2026-04-25 10:25 63.70982 -20.43036 25371 ft 425 kts 114°
2026-04-25 10:25 63.69741 -20.36991 25807 ft 426 kts 115°
2026-04-25 10:26 63.68504 -20.30886 26183 ft 430 kts 115°
2026-04-25 10:26 63.67256 -20.24752 26601 ft 432 kts 115°
2026-04-25 10:26 63.65994 -20.18580 26988 ft 435 kts 115°
2026-04-25 10:26 63.64723 -20.12382 27401 ft 437 kts 115°
2026-04-25 10:27 63.63446 -20.06168 27803 ft 439 kts 115°
2026-04-25 10:27 63.62156 -19.99915 28159 ft 442 kts 115°
2026-04-25 10:27 63.60855 -19.93629 28535 ft 445 kts 115°
2026-04-25 10:27 63.59543 -19.87312 28916 ft 447 kts 115°
2026-04-25 10:28 63.58223 -19.80967 29296 ft 449 kts 115°
2026-04-25 10:28 63.56895 -19.74605 29638 ft 452 kts 115°
2026-04-25 10:28 63.55571 -19.68283 30002 ft 454 kts 115°
2026-04-25 10:28 63.54222 -19.61862 30370 ft 456 kts 115°
2026-04-25 10:29 63.52864 -19.55422 30752 ft 456 kts 115°
2026-04-25 10:29 63.51511 -19.49014 31191 ft 454 kts 115°
2026-04-25 10:29 63.50158 -19.42637 31623 ft 453 kts 115°
2026-04-25 10:29 63.48806 -19.36277 32062 ft 451 kts 115°
2026-04-25 10:30 63.47453 -19.29938 32480 ft 450 kts 115°
2026-04-25 10:30 63.46561 -19.25765 32744 ft 449 kts 115°
2026-04-25 10:30 63.44755 -19.17346 33290 ft 448 kts 115°
2026-04-25 10:30 63.43407 -19.11078 33686 ft 447 kts 115°
2026-04-25 10:31 63.42055 -19.04818 34104 ft 446 kts 115°
2026-04-25 10:31 63.40708 -18.98592 34486 ft 445 kts 115°
2026-04-25 10:31 63.39355 -18.92368 34793 ft 445 kts 115°
2026-04-25 10:31 63.38003 -18.86157 35099 ft 445 kts 115°
2026-04-25 10:32 63.36667 -18.80043 35427 ft 444 kts 115°
2026-04-25 10:32 63.35312 -18.73855 35731 ft 444 kts 115°
2026-04-25 10:32 63.33953 -18.67673 36021 ft 444 kts 115°
2026-04-25 10:32 63.32595 -18.61510 36315 ft 443 kts 116°
2026-04-25 10:33 63.31236 -18.55357 36602 ft 443 kts 116°
2026-04-25 10:33 63.29875 -18.49214 36879 ft 442 kts 116°
2026-04-25 10:33 63.28511 -18.43078 37140 ft 443 kts 116°
2026-04-25 10:33 63.27144 -18.36946 37316 ft 443 kts 116°
2026-04-25 10:34 63.25772 -18.30806 37328 ft 442 kts 116°
2026-04-25 10:34 63.23032 -18.18602 37329 ft 442 kts 116°
2026-04-25 10:35 63.20282 -18.06421 37331 ft 442 kts 116°
2026-04-25 10:35 63.17517 -17.94246 37331 ft 442 kts 116°
2026-04-25 10:36 63.14744 -17.82105 37329 ft 442 kts 116°
2026-04-25 10:36 63.11954 -17.69954 37330 ft 443 kts 116°
2026-04-25 10:37 63.09152 -17.57823 37329 ft 443 kts 116°
2026-04-25 10:37 63.06358 -17.45792 37331 ft 444 kts 116°
2026-04-25 10:38 63.03528 -17.33672 37332 ft 445 kts 116°
2026-04-25 10:38 63.00685 -17.21567 37332 ft 445 kts 116°
2026-04-25 10:39 62.97827 -17.09469 37333 ft 446 kts 116°
2026-04-25 10:39 62.94958 -16.97388 37332 ft 446 kts 116°
2026-04-25 10:40 62.92078 -16.85326 37333 ft 446 kts 116°
2026-04-25 10:40 62.89182 -16.73265 37331 ft 447 kts 116°
2026-04-25 10:41 62.86762 -16.63239 37330 ft 448 kts 116°
2026-04-25 10:41 62.83837 -16.51183 37331 ft 449 kts 116°
2026-04-25 10:42 62.80893 -16.39112 37333 ft 450 kts 116°
2026-04-25 10:42 62.77931 -16.27039 37335 ft 451 kts 116°
2026-04-25 10:43 62.74951 -16.14956 37335 ft 452 kts 116°
2026-04-25 10:43 62.71953 -16.02865 37334 ft 453 kts 117°
2026-04-25 10:44 62.68942 -15.90787 37334 ft 454 kts 117°
2026-04-25 10:44 62.65912 -15.78702 37333 ft 456 kts 117°
2026-04-25 10:45 62.62861 -15.66602 37335 ft 457 kts 117°
2026-04-25 10:45 62.59796 -15.54509 37335 ft 458 kts 117°
2026-04-25 10:46 62.56704 -15.42378 37333 ft 459 kts 117°
2026-04-25 10:46 62.53620 -15.30345 37330 ft 461 kts 117°
2026-04-25 10:47 62.50489 -15.18191 37328 ft 462 kts 118°
2026-04-25 10:47 62.47344 -15.06051 37331 ft 463 kts 118°
2026-04-25 10:48 62.44177 -14.93897 37331 ft 464 kts 118°
2026-04-25 10:48 62.41000 -14.81762 37332 ft 465 kts 118°
2026-04-25 10:49 62.37799 -14.69611 37333 ft 466 kts 119°
2026-04-25 10:49 62.34588 -14.57482 37332 ft 466 kts 119°
2026-04-25 10:50 62.31361 -14.45361 37331 ft 467 kts 119°
2026-04-25 10:50 62.28118 -14.33245 37332 ft 468 kts 119°
2026-04-25 10:51 62.24865 -14.21157 37331 ft 468 kts 120°
2026-04-25 10:51 62.21616 -14.09149 37330 ft 469 kts 120°
2026-04-25 10:52 62.18326 -13.97054 37331 ft 470 kts 120°
2026-04-25 10:52 62.15020 -13.84964 37330 ft 471 kts 120°
2026-04-25 10:53 62.11700 -13.72892 37333 ft 471 kts 120°
2026-04-25 10:53 62.08364 -13.60821 37333 ft 472 kts 121°
2026-04-25 10:54 62.05027 -13.48815 37333 ft 473 kts 121°
2026-04-25 10:54 62.01658 -13.36754 37332 ft 474 kts 121°
2026-04-25 10:55 61.98267 -13.24683 37329 ft 475 kts 121°
2026-04-25 10:55 61.94862 -13.12627 37331 ft 476 kts 121°
2026-04-25 10:56 61.91436 -13.00560 37327 ft 477 kts 121°
2026-04-25 10:56 61.87999 -12.88514 37328 ft 478 kts 122°
2026-04-25 10:57 61.84547 -12.76485 37331 ft 478 kts 122°
2026-04-25 10:57 61.81080 -12.64466 37328 ft 479 kts 122°
2026-04-25 10:58 61.77599 -12.52461 37327 ft 479 kts 122°
2026-04-25 10:58 61.74122 -12.40532 37332 ft 480 kts 122°
2026-04-25 10:59 61.70610 -12.28546 37327 ft 480 kts 123°
2026-04-25 10:59 61.67085 -12.16579 37325 ft 481 kts 123°
2026-04-25 11:00 61.63541 -12.04614 37328 ft 482 kts 123°
2026-04-25 11:00 61.59990 -11.92683 37326 ft 482 kts 123°
2026-04-25 11:01 61.56421 -11.80757 37329 ft 482 kts 123°
2026-04-25 11:01 61.52844 -11.68865 37328 ft 482 kts 124°
2026-04-25 11:02 61.49253 -11.56988 37329 ft 482 kts 124°
2026-04-25 11:02 61.45650 -11.45134 37330 ft 482 kts 124°
2026-04-25 11:03 61.42041 -11.33321 37325 ft 482 kts 124°
2026-04-25 11:03 61.38446 -11.21611 37325 ft 482 kts 124°
2026-04-25 11:04 61.34819 -11.09863 37327 ft 482 kts 124°
2026-04-25 11:04 61.31179 -10.98128 37327 ft 481 kts 125°
2026-04-25 11:05 61.27540 -10.86440 37326 ft 481 kts 125°
2026-04-25 11:05 61.23892 -10.74780 37325 ft 481 kts 125°
2026-04-25 11:06 61.20237 -10.63155 37325 ft 481 kts 125°
2026-04-25 11:06 61.16566 -10.51532 37324 ft 481 kts 125°
2026-04-25 11:07 61.12896 -10.39969 37326 ft 481 kts 126°
2026-04-25 11:07 61.09235 -10.28489 37323 ft 481 kts 126°
2026-04-25 11:08 61.05590 -10.17114 37320 ft 481 kts 126°
2026-04-25 11:08 61.01879 -10.05602 37320 ft 480 kts 128°
2026-04-25 11:08 60.99710 -10.00448 37313 ft 472 kts 142°
2026-04-25 11:09 60.97174 -9.96159 37312 ft 472 kts 145°
2026-04-25 11:09 60.91960 -9.87928 37320 ft 471 kts 147°
2026-04-25 11:10 60.86691 -9.79928 37322 ft 471 kts 147°
2026-04-25 11:10 60.81426 -9.72040 37321 ft 470 kts 147°
2026-04-25 11:11 60.76137 -9.64152 37315 ft 470 kts 148°
2026-04-25 11:11 60.70844 -9.56292 37317 ft 470 kts 148°
2026-04-25 11:12 60.65548 -9.48460 37315 ft 470 kts 148°
2026-04-25 11:12 60.60257 -9.40667 37313 ft 469 kts 148°
2026-04-25 11:13 60.54968 -9.32912 37314 ft 469 kts 148°
2026-04-25 11:13 60.49678 -9.25186 37313 ft 468 kts 148°
2026-04-25 11:14 60.44386 -9.17489 37317 ft 468 kts 148°
2026-04-25 11:14 60.39130 -9.09874 37313 ft 467 kts 148°
2026-04-25 11:15 60.33841 -9.02244 37308 ft 467 kts 148°
2026-04-25 11:15 60.28554 -8.94646 37307 ft 466 kts 148°
2026-04-25 11:16 60.20630 -8.83318 37306 ft 465 kts 148°
2026-04-25 11:16 60.15355 -8.75815 37309 ft 464 kts 148°
2026-04-25 11:17 60.10083 -8.68345 37305 ft 463 kts 148°
2026-04-25 11:17 60.04815 -8.60908 37303 ft 462 kts 148°
2026-04-25 11:18 59.99769 -8.53036 37314 ft 464 kts 142°
2026-04-25 11:18 59.94886 -8.44596 37302 ft 464 kts 142°
2026-04-25 11:19 59.90007 -8.36160 37302 ft 464 kts 142°
2026-04-25 11:19 59.85134 -8.27767 37306 ft 463 kts 142°
2026-04-25 11:20 59.80256 -8.19397 37298 ft 463 kts 142°
2026-04-25 11:20 59.75381 -8.11069 37300 ft 462 kts 142°
2026-04-25 11:21 59.70507 -8.02771 37303 ft 461 kts 142°
2026-04-25 11:21 59.65640 -7.94522 37294 ft 461 kts 142°
2026-04-25 11:22 59.61587 -7.87676 37291 ft 461 kts 142°
2026-04-25 11:22 59.55882 -7.78079 37300 ft 460 kts 142°
2026-04-25 11:23 59.51006 -7.69909 37303 ft 460 kts 142°
2026-04-25 11:23 59.46129 -7.61773 37295 ft 459 kts 142°
2026-04-25 11:24 59.41282 -7.53715 37300 ft 459 kts 142°
2026-04-25 11:24 59.36403 -7.45638 37295 ft 459 kts 142°
2026-04-25 11:25 59.31523 -7.37590 37289 ft 458 kts 142°
2026-04-25 11:25 59.26639 -7.29567 37288 ft 458 kts 142°
2026-04-25 11:26 59.21752 -7.21569 37289 ft 458 kts 142°
2026-04-25 11:26 59.16874 -7.13617 37285 ft 457 kts 142°
2026-04-25 11:27 59.11990 -7.05685 37287 ft 457 kts 142°
2026-04-25 11:27 59.08753 -7.00447 37285 ft 456 kts 142°
2026-04-25 11:28 59.02254 -6.89964 37285 ft 456 kts 142°
2026-04-25 11:28 58.98157 -6.83386 37279 ft 456 kts 142°
2026-04-25 11:29 58.93299 -6.75611 37283 ft 456 kts 142°
2026-04-25 11:29 58.88407 -6.67814 37279 ft 455 kts 142°
2026-04-25 11:30 58.83550 -6.60105 37322 ft 445 kts 139°
2026-04-25 11:30 58.78791 -6.52569 37285 ft 441 kts 139°
2026-04-25 11:31 58.74040 -6.45077 37274 ft 441 kts 139°
2026-04-25 11:31 58.69279 -6.37600 37274 ft 441 kts 139°
2026-04-25 11:32 58.64517 -6.30145 37280 ft 442 kts 139°
2026-04-25 11:32 58.59748 -6.22709 37270 ft 442 kts 139°
2026-04-25 11:33 58.54975 -6.15292 37272 ft 442 kts 139°
2026-04-25 11:33 58.50198 -6.07897 37265 ft 442 kts 139°
2026-04-25 11:34 58.45418 -6.00522 37264 ft 442 kts 139°
2026-04-25 11:34 58.40623 -5.93151 37264 ft 442 kts 139°
2026-04-25 11:35 58.35824 -5.85801 37260 ft 443 kts 139°
2026-04-25 11:35 58.31049 -5.78513 37257 ft 443 kts 139°
2026-04-25 11:36 58.26232 -5.71189 37252 ft 443 kts 140°
2026-04-25 11:36 58.21407 -5.63878 37247 ft 444 kts 140°
2026-04-25 11:37 58.16579 -5.56590 37243 ft 444 kts 140°
2026-04-25 11:37 58.11736 -5.49304 37243 ft 445 kts 140°
2026-04-25 11:38 58.06887 -5.42029 37235 ft 445 kts 140°
2026-04-25 11:38 58.02036 -5.34776 37233 ft 445 kts 140°
2026-04-25 11:39 57.97163 -5.27516 37228 ft 446 kts 140°
2026-04-25 11:39 57.92323 -5.20329 37230 ft 446 kts 140°
2026-04-25 11:40 57.90089 -5.16323 37219 ft 443 kts 127°
2026-04-25 11:40 57.88435 -5.11475 37240 ft 442 kts 118°
2026-04-25 11:40 57.85302 -5.01509 37231 ft 443 kts 119°
2026-04-25 11:41 57.82172 -4.91531 37236 ft 444 kts 119°
2026-04-25 11:41 57.79038 -4.81561 37240 ft 444 kts 119°
2026-04-25 11:42 57.75889 -4.71588 37243 ft 444 kts 119°
2026-04-25 11:42 57.72731 -4.61624 37084 ft 445 kts 119°
2026-04-25 11:43 57.71154 -4.56667 36700 ft 444 kts 120°
2026-04-25 11:43 57.69573 -4.51708 36321 ft 444 kts 120°
2026-04-25 11:43 57.67901 -4.46843 35929 ft 445 kts 128°
2026-04-25 11:43 57.65654 -4.42882 35465 ft 447 kts 144°
2026-04-25 11:44 57.62912 -4.40105 35000 ft 451 kts 157°
2026-04-25 11:44 57.59897 -4.38458 34532 ft 455 kts 169°
2026-04-25 11:44 57.56749 -4.37690 34045 ft 457 kts 171°
2026-04-25 11:44 57.53605 -4.36843 33518 ft 458 kts 171°
2026-04-25 11:45 57.50442 -4.36000 32999 ft 459 kts 171°
2026-04-25 11:45 57.47277 -4.35162 32488 ft 461 kts 171°
2026-04-25 11:45 57.44094 -4.34323 31987 ft 461 kts 171°
2026-04-25 11:45 57.40911 -4.33490 31500 ft 462 kts 171°
2026-04-25 11:46 57.37767 -4.32669 31025 ft 463 kts 172°
2026-04-25 11:46 57.34580 -4.31839 30547 ft 463 kts 172°
2026-04-25 11:46 57.31380 -4.31006 30037 ft 463 kts 172°
2026-04-25 11:46 57.28183 -4.30177 29482 ft 465 kts 172°
2026-04-25 11:47 57.24973 -4.29346 28932 ft 466 kts 172°
2026-04-25 11:47 57.21748 -4.28514 28396 ft 468 kts 172°
2026-04-25 11:47 57.18510 -4.27682 27868 ft 469 kts 172°
2026-04-25 11:47 57.15276 -4.26853 27352 ft 471 kts 172°
2026-04-25 11:48 57.12027 -4.26022 26852 ft 472 kts 172°
2026-04-25 11:48 57.08772 -4.25193 26359 ft 473 kts 172°
2026-04-25 11:48 57.05496 -4.24361 25864 ft 475 kts 172°
2026-04-25 11:48 57.02229 -4.23534 25267 ft 473 kts 172°
2026-04-25 11:49 56.98980 -4.22716 24700 ft 469 kts 172°
2026-04-25 11:49 56.95757 -4.21905 24135 ft 466 kts 172°
2026-04-25 11:49 56.92597 -4.21113 23558 ft 463 kts 172°
2026-04-25 11:49 56.89429 -4.20250 22902 ft 458 kts 168°
2026-04-25 11:50 56.86357 -4.18804 22262 ft 455 kts 165°
2026-04-25 11:50 56.83302 -4.17305 21631 ft 452 kts 165°
2026-04-25 11:50 56.80275 -4.15812 21019 ft 449 kts 165°
2026-04-25 11:50 56.77274 -4.14332 20416 ft 445 kts 165°
2026-04-25 11:51 56.74291 -4.12861 19816 ft 442 kts 165°
2026-04-25 11:51 56.71339 -4.11408 19248 ft 438 kts 166°
2026-04-25 11:51 56.68412 -4.09971 18673 ft 433 kts 166°
2026-04-25 11:51 56.65531 -4.08557 18048 ft 427 kts 166°
2026-04-25 11:52 56.62674 -4.07157 17403 ft 421 kts 166°
2026-04-25 11:52 56.59856 -4.05779 16767 ft 416 kts 166°
2026-04-25 11:52 56.57082 -4.04425 16145 ft 411 kts 166°
2026-04-25 11:52 56.54327 -4.03082 15537 ft 407 kts 166°
2026-04-25 11:53 56.51596 -4.01752 14939 ft 403 kts 166°
2026-04-25 11:53 56.48902 -4.00443 14344 ft 400 kts 166°
2026-04-25 11:53 56.46222 -3.99141 13736 ft 396 kts 166°
2026-04-25 11:53 56.43569 -3.97856 13078 ft 393 kts 166°
2026-04-25 11:54 56.40944 -3.96586 12449 ft 390 kts 166°
2026-04-25 11:54 56.39604 -3.95938 12126 ft 389 kts 166°
2026-04-25 11:54 56.34542 -3.93494 11143 ft 365 kts 166°
2026-04-25 11:55 56.32113 -3.92325 10696 ft 360 kts 167°
2026-04-25 11:55 56.29723 -3.91175 10259 ft 354 kts 167°
2026-04-25 11:55 56.27398 -3.90058 9814 ft 337 kts 167°
2026-04-25 11:55 56.25180 -3.88995 9373 ft 325 kts 167°
2026-04-25 11:56 56.22995 -3.87947 8917 ft 324 kts 167°
2026-04-25 11:56 56.20823 -3.86907 8442 ft 322 kts 167°
2026-04-25 11:56 56.18669 -3.85878 8130 ft 316 kts 167°
2026-04-25 11:56 56.16570 -3.84876 7885 ft 308 kts 167°
2026-04-25 11:57 56.14528 -3.83901 7637 ft 300 kts 167°
2026-04-25 11:57 56.12510 -3.83134 7393 ft 293 kts 176°
2026-04-25 11:57 56.10487 -3.82780 7148 ft 292 kts 176°
2026-04-25 11:57 56.08463 -3.82393 6901 ft 291 kts 176°
2026-04-25 11:58 56.06452 -3.81987 6653 ft 290 kts 176°
2026-04-25 11:58 56.04495 -3.81578 6403 ft 284 kts 175°
2026-04-25 11:58 56.02555 -3.81164 6145 ft 278 kts 175°
2026-04-25 11:58 56.00653 -3.80754 5879 ft 272 kts 175°
2026-04-25 11:59 55.98787 -3.80350 5632 ft 267 kts 175°
2026-04-25 11:59 55.96964 -3.79955 5399 ft 261 kts 175°
2026-04-25 11:59 55.95176 -3.79567 5142 ft 257 kts 175°
2026-04-25 12:00 55.91624 -3.78798 4368 ft 250 kts 174°
2026-04-25 12:00 55.89947 -3.78437 4170 ft 236 kts 174°
2026-04-25 12:00 55.86823 -3.77763 3974 ft 214 kts 175°
2026-04-25 12:01 55.85389 -3.77442 3930 ft 201 kts 171°
2026-04-25 12:01 55.84167 -3.76329 3948 ft 202 kts 134°
2026-04-25 12:01 55.83538 -3.74114 3919 ft 205 kts 98°
2026-04-25 12:01 55.83687 -3.71615 3858 ft 206 kts 73°
2026-04-25 12:02 55.84883 -3.67004 3578 ft 205 kts 58°
2026-04-25 12:02 55.85598 -3.64826 3400 ft 203 kts 59°
2026-04-25 12:02 55.86310 -3.62737 3199 ft 191 kts 59°
2026-04-25 12:03 55.86970 -3.60802 2994 ft 176 kts 59°
2026-04-25 12:03 55.87577 -3.59024 2792 ft 166 kts 59°
2026-04-25 12:03 55.88174 -3.57269 2577 ft 164 kts 60°
2026-04-25 12:03 55.88761 -3.55552 2395 ft 161 kts 60°
2026-04-25 12:04 55.89340 -3.53856 2179 ft 158 kts 60°
2026-04-25 12:04 55.89899 -3.52214 1963 ft 154 kts 60°
2026-04-25 12:04 55.90425 -3.50674 1769 ft 142 kts 61°
2026-04-25 12:04 55.90936 -3.49177 1627 ft 138 kts 59°
2026-04-25 12:05 55.91431 -3.47731 1527 ft 139 kts 62°
2026-04-25 12:05 55.91924 -3.46262 1378 ft 137 kts 62°
2026-04-25 12:05 55.92416 -3.44823 1165 ft 135 kts 60°
2026-04-25 12:05 55.92907 -3.43389 911 ft 135 kts 60°
2026-04-25 12:06 55.93390 -3.41963 687 ft 134 kts 59°
2026-04-25 12:06 55.93860 -3.40583 442 ft 128 kts 59°
2026-04-25 12:06 55.94327 -3.39214 253 ft 125 kts 58°
2026-04-25 12:06 55.94753 -3.37972 122 ft 101 kts 58°
2026-04-25 12:07 55.94986 -3.37282 115 ft 31 kts 59°
2026-04-25 12:07 55.95052 -3.37099 113 ft 20 kts 48°
2026-04-25 12:07 55.95124 -3.36880 114 ft 23 kts 60°
2026-04-25 12:07 55.95209 -3.36629 115 ft 14 kts 59°
2026-04-25 12:08 55.95257 -3.36441 110 ft 11 kts 104°
2026-04-25 12:08 55.95227 -3.36387 110 ft 3 kts 150°
2026-04-25 12:08 55.95203 -3.36362 110 ft 5 kts 149°
2026-04-25 12:08 55.95173 -3.36331 111 ft 6 kts 149°
2026-04-25 12:09 55.95131 -3.36313 112 ft 7 kts 195°
2026-04-25 12:09 55.95112 -3.36345 112 ft 3 kts 237°
2026-04-25 12:09 55.95076 -3.36400 114 ft 10 kts 187°
2026-04-25 12:09 55.95012 -3.36411 112 ft 11 kts 219°
2026-04-25 12:10 55.94970 -3.36528 111 ft 12 kts 237°
2026-04-25 12:10 55.94950 -3.36548 111 ft 4 kts 153°
2026-04-25 12:10 55.94908 -3.36497 109 ft 1 kts 148°
2026-04-25 12:10 55.94899 -3.36487 110 ft 1 kts 148°